Chauncey, GA

7:21 AM EDT on July 28, 2016 (GMT -0400)
Heart Of Georgia Regional

Weather History for KEZM - November, 2012

Change the Weather History Date:

Sunday, November 11, 2012

  Actual Average Record
Temperature  
Mean Temperature 59 °F -  
Max Temperature 80 °F 70 °F 76 °F (2013)
Min Temperature 38 °F 45 °F 34 °F (2014)
Degree Days  
Heating Degree Days 6    
Growing Degree Days 9 (Base 50)    
Moisture  
Dew Point 48 °F    
Average Humidity 70    
Maximum Humidity 96    
Minimum Humidity 34    
Precipitation  
Precipitation 0.00 in - - ()
Sea Level Pressure  
Sea Level Pressure 30.37 in    
Wind  
Wind Speed 2 mph ()    
Max Wind Speed 13 mph    
Max Gust Speed 21 mph    
Visibility 9.8 miles    
Events      
Averages and records for this station are not official NWS values.
T = Trace of Precipitation, MM = Missing Value Source: Averaged Metar Reports

Daily Weather History Graph

Daily Weather History Graph

Search for Another Location

Airport or City:

Trip Planner

Search our weather history database for the weather conditions in past years. The results will help you decide how hot, cold, wet, or windy it might be!

Date:

Astronomy

Nov. 11, 2012 Rise Set
Actual Time 6:58 AM EST 5:34 PM EST
Civil Twilight 6:32 AM EST 6:00 PM EST
Nautical Twilight 6:03 AM EST 6:29 PM EST
Astronomical Twilight 5:34 AM EST 6:58 PM EST
Moon 4:18 AM EST (11/11) 3:51 PM EST (11/11)
Length of Visible Light 11h 27m
Length of Day
10h 35m
Waning Crescent, 7% of the Moon is Illuminated
Nov 11
Waning Crescent
Nov 13
New
Nov 20
First Quarter
Nov 28
Full
Dec 6
Last Quarter

Hourly Weather History & Observations

Time (EST) Temp. Dew Point Humidity Pressure Visibility Wind Dir Wind Speed Gust Speed Precip Events Conditions
12:35 AM 42.1 °F 40.3 °F 93% 30.38 in 7.0 mi Calm Calm - N/A   Clear
12:55 AM 41.4 °F 39.4 °F 93% 30.38 in 10.0 mi Calm Calm - N/A   Clear
1:15 AM 40.8 °F 39.0 °F 93% 30.37 in 7.0 mi Calm Calm - N/A   Clear
1:35 AM 41.0 °F 39.0 °F 93% 30.37 in 10.0 mi Calm Calm - N/A   Clear
1:55 AM 40.3 °F 38.7 °F 94% 30.37 in 10.0 mi Calm Calm - N/A   Clear
2:15 AM 39.7 °F 38.3 °F 95% 30.37 in 7.0 mi Calm Calm - N/A   Clear
2:35 AM 39.9 °F 38.3 °F 94% 30.37 in 10.0 mi Calm Calm - N/A   Clear
2:55 AM 39.9 °F 37.8 °F 92% 30.36 in 10.0 mi Calm Calm - N/A   Clear
3:15 AM 39.4 °F 37.6 °F 93% 30.37 in 10.0 mi Calm Calm - N/A   Clear
3:35 AM 39.2 °F 37.6 °F 94% 30.37 in 10.0 mi Calm Calm - N/A   Clear
3:55 AM 39.2 °F 37.4 °F 93% 30.37 in 10.0 mi Calm Calm - N/A   Clear
4:15 AM 39.2 °F 37.6 °F 94% 30.37 in 10.0 mi Calm Calm - N/A   Clear
4:35 AM 39.4 °F 37.4 °F 93% 30.37 in 10.0 mi Calm Calm - N/A   Clear
4:55 AM 38.8 °F 37.4 °F 95% 30.37 in 10.0 mi Calm Calm - N/A   Clear
5:15 AM 38.5 °F 37.4 °F 96% 30.37 in 10.0 mi Calm Calm - N/A   Clear
5:35 AM 39.4 °F 37.4 °F 93% 30.38 in 10.0 mi Calm Calm - N/A   Clear
5:55 AM 38.7 °F 37.4 °F 95% 30.38 in 7.0 mi Calm Calm - N/A   Clear
6:35 AM 38.5 °F 37.0 °F 95% 30.40 in 10.0 mi Calm Calm - N/A   Clear
6:55 AM 39.2 °F 37.4 °F 93% 30.40 in 10.0 mi Calm Calm - N/A   Mostly Cloudy
7:15 AM 41.2 °F 39.6 °F 94% 30.40 in 10.0 mi Calm Calm - N/A   Overcast
7:35 AM 42.8 °F 40.5 °F 91% 30.41 in 10.0 mi Calm Calm - N/A   Overcast
7:55 AM 43.9 °F 41.7 °F 92% 30.41 in 10.0 mi Calm Calm - N/A   Overcast
8:35 AM 47.8 °F 44.1 °F 87% 30.43 in 10.0 mi Calm Calm - N/A   Overcast
8:55 AM 50.2 °F 45.7 °F 85% 30.43 in 10.0 mi Calm Calm - N/A   Overcast
9:15 AM 53.6 °F 48.0 °F 81% 30.43 in 10.0 mi Calm Calm - N/A   Overcast
9:35 AM 57.4 °F 49.6 °F 75% 30.44 in 10.0 mi Calm Calm - N/A   Overcast
9:55 AM 59.5 °F 50.7 °F 73% 30.44 in 10.0 mi Calm Calm - N/A   Overcast
10:15 AM 64.8 °F 52.0 °F 63% 30.44 in 10.0 mi ESE 3.5 mph - N/A   Overcast
10:35 AM 67.6 °F 52.7 °F 59% 30.44 in 10.0 mi ESE 5.8 mph - N/A   Overcast
10:55 AM 70.0 °F 52.9 °F 55% 30.43 in 10.0 mi East 4.6 mph - N/A   Overcast
11:15 AM 73.0 °F 52.2 °F 48% 30.43 in 10.0 mi ESE 4.6 mph - N/A   Scattered Clouds
11:35 AM 73.9 °F 52.0 °F 46% 30.42 in 10.0 mi East 5.8 mph - N/A   Scattered Clouds
11:55 AM 75.4 °F 50.9 °F 42% 30.41 in 10.0 mi ESE 4.6 mph - N/A   Overcast
12:15 PM 76.8 °F 49.3 °F 38% 30.40 in 10.0 mi SE 8.1 mph - N/A   Scattered Clouds
12:35 PM 78.6 °F 49.1 °F 35% 30.40 in 10.0 mi SE 5.8 mph - N/A   Mostly Cloudy
12:55 PM 77.7 °F 48.7 °F 36% 30.39 in 10.0 mi SSE 8.1 mph - N/A   Mostly Cloudy
1:15 PM 78.6 °F 48.7 °F 35% 30.38 in 10.0 mi SE 8.1 mph - N/A   Overcast
1:35 PM 77.9 °F 48.7 °F 36% 30.37 in 10.0 mi SSE 6.9 mph - N/A   Mostly Cloudy
1:55 PM 78.8 °F 48.2 °F 34% 30.36 in 10.0 mi SE 9.2 mph - N/A   Mostly Cloudy
2:15 PM 78.3 °F 48.4 °F 35% 30.35 in 10.0 mi SE 12.7 mph 20.7 mph N/A   Mostly Cloudy
2:35 PM 79.0 °F 48.9 °F 35% 30.35 in 10.0 mi SSE 9.2 mph - N/A   Mostly Cloudy
2:55 PM 80.2 °F 49.1 °F 34% 30.33 in 10.0 mi SE 12.7 mph 16.1 mph N/A   Overcast
3:15 PM 78.6 °F 49.1 °F 35% 30.33 in 10.0 mi ESE 8.1 mph - N/A   Overcast
3:35 PM 77.5 °F 49.5 °F 37% 30.33 in 10.0 mi SE 8.1 mph - N/A   Mostly Cloudy
3:55 PM 77.9 °F 49.6 °F 37% 30.33 in 10.0 mi SE 9.2 mph - N/A   Mostly Cloudy
4:15 PM 76.8 °F 50.5 °F 40% 30.33 in 10.0 mi SE 4.6 mph - N/A   Scattered Clouds
4:35 PM 77.4 °F 51.1 °F 40% 30.33 in 10.0 mi SE 5.8 mph - N/A   Mostly Cloudy
4:55 PM 76.5 °F 51.8 °F 42% 30.33 in 10.0 mi ESE 9.2 mph - N/A   Mostly Cloudy
5:15 PM 74.8 °F 52.7 °F 46% 30.33 in 10.0 mi SE 8.1 mph - N/A   Clear
5:35 PM 72.5 °F 53.6 °F 51% 30.33 in 10.0 mi SE 3.5 mph - N/A   Clear
5:55 PM 71.6 °F 53.6 °F 53% 30.33 in 10.0 mi SE 3.5 mph - N/A   Clear
6:15 PM 70.5 °F 54.1 °F 56% 30.34 in 10.0 mi SE 4.6 mph - N/A   Clear
6:35 PM 69.1 °F 54.5 °F 60% 30.35 in 10.0 mi Calm Calm - N/A   Clear
6:55 PM 68.2 °F 54.7 °F 62% 30.35 in 10.0 mi ESE 3.5 mph - N/A   Clear
7:15 PM 67.6 °F 55.0 °F 64% 30.35 in 10.0 mi ESE 3.5 mph - N/A   Clear
7:35 PM 66.2 °F 55.0 °F 67% 30.35 in 10.0 mi ESE 3.5 mph - N/A   Clear
7:55 PM 66.2 °F 55.4 °F 68% 30.35 in 10.0 mi ESE 3.5 mph - N/A   Clear
8:15 PM 65.3 °F 55.6 °F 71% 30.35 in 10.0 mi ESE 5.8 mph - N/A   Clear
8:35 PM 64.9 °F 55.6 °F 72% 30.35 in 10.0 mi ESE 4.6 mph - N/A   Clear
8:55 PM 64.9 °F 55.9 °F 73% 30.34 in 10.0 mi ESE 5.8 mph - N/A   Clear
9:15 PM 64.6 °F 55.9 °F 74% 30.34 in 10.0 mi ESE 5.8 mph - N/A   Clear
9:35 PM 64.0 °F 55.8 °F 74% 30.35 in 10.0 mi SE 4.6 mph - N/A   Clear
9:55 PM 63.1 °F 55.8 °F 77% 30.35 in 10.0 mi SE 4.6 mph - N/A   Clear
10:15 PM 62.4 °F 55.8 °F 79% 30.35 in 10.0 mi SE 3.5 mph - N/A   Clear
10:35 PM 61.7 °F 56.1 °F 82% 30.35 in 10.0 mi ESE 3.5 mph - N/A   Clear
10:55 PM 61.2 °F 56.1 °F 83% 30.35 in 10.0 mi ESE 3.5 mph - N/A   Clear
11:15 PM 60.6 °F 56.1 °F 85% 30.35 in 10.0 mi ESE 3.5 mph - N/A   Clear
11:35 PM 55.8 °F 52.9 °F 90% 30.35 in 10.0 mi Calm Calm - N/A   Clear
11:55 PM 59.2 °F 56.1 °F 90% 30.35 in 10.0 mi Calm Calm - N/A   Clear